contact:dominique.lefevre@mio.osupytheas.fr, maurice.libes@osupytheas.fr, didier.mallarino@osupytheas.fr
Project:EMSO http://www.emso-fr.org/EMSO-France
Depth: 2436.0 m
Title:EMSO Ligure Ouest : Data MII capteur MICROCAT
DateTime_Computer,Latitude,Longitude,Temperature,Conductivity,Pressure,DateTime_Instrument
DateTime_Computer,Latitude,Longitude,degC,S m-1,dbar,DateTime_Instrument
2022-10-31T00:00:56Z,42.805,6.029,13.3036,4.60084,2470.684,2022-10-31T02:02:53Z
2022-10-31T00:03:59Z,42.805,6.029,13.3034,4.60085,2470.693,2022-10-31T02:05:56Z
2022-10-31T00:07:02Z,42.805,6.029,13.3042,4.60084,2470.693,2022-10-31T02:08:59Z
2022-10-31T00:10:05Z,42.805,6.029,13.3037,4.60079,2470.684,2022-10-31T02:12:02Z
2022-10-31T00:13:08Z,42.805,6.029,13.3043,4.60102,2470.661,2022-10-31T02:15:05Z
2022-10-31T00:16:11Z,42.805,6.029,13.3048,4.60083,2470.661,2022-10-31T02:18:08Z
2022-10-31T00:19:14Z,42.805,6.029,13.3048,4.60088,2470.67,2022-10-31T02:21:11Z
2022-10-31T00:22:17Z,42.805,6.029,13.3056,4.60088,2470.661,2022-10-31T02:24:14Z
2022-10-31T00:25:20Z,42.805,6.029,13.3046,4.60092,2470.684,2022-10-31T02:27:17Z
2022-10-31T00:28:23Z,42.805,6.029,13.3053,4.60109,2470.67,2022-10-31T02:30:20Z
2022-10-31T00:31:27Z,42.805,6.029,13.3068,4.60087,2470.684,2022-10-31T02:33:23Z
2022-10-31T00:34:30Z,42.805,6.029,13.3059,4.60086,2470.661,2022-10-31T02:36:26Z
2022-10-31T00:37:33Z,42.805,6.029,13.3046,4.60080,2470.684,2022-10-31T02:39:29Z
2022-10-31T00:40:36Z,42.805,6.029,13.3055,4.60084,2470.646,2022-10-31T02:42:33Z
2022-10-31T00:43:39Z,42.805,6.029,13.3046,4.60094,2470.684,2022-10-31T02:45:36Z
2022-10-31T00:46:42Z,42.805,6.029,13.3054,4.60080,2470.661,2022-10-31T02:48:39Z
2022-10-31T00:49:45Z,42.805,6.029,13.3058,4.60079,2470.661,2022-10-31T02:51:42Z
2022-10-31T00:52:48Z,42.805,6.029,13.3050,4.60088,2470.646,2022-10-31T02:54:45Z
2022-10-31T00:55:51Z,42.805,6.029,13.3054,4.60079,2470.646,2022-10-31T02:57:48Z
2022-10-31T00:58:54Z,42.805,6.029,13.3043,4.60071,2470.646,2022-10-31T03:00:51Z
2022-10-31T01:01:57Z,42.805,6.029,13.3048,4.60084,2470.661,2022-10-31T03:03:54Z
2022-10-31T01:05:00Z,42.805,6.029,13.3043,4.60080,2470.661,2022-10-31T03:06:57Z
2022-10-31T01:08:03Z,42.805,6.029,13.3051,4.60074,2470.637,2022-10-31T03:10:00Z
2022-10-31T01:11:07Z,42.805,6.029,13.3041,4.60084,2470.646,2022-10-31T03:13:03Z
2022-10-31T01:14:10Z,42.805,6.029,13.3036,4.60090,2470.637,2022-10-31T03:16:06Z
2022-10-31T01:17:13Z,42.805,6.029,13.3043,4.60087,2470.661,2022-10-31T03:19:09Z
2022-10-31T01:20:16Z,42.805,6.029,13.3044,4.60074,2470.661,2022-10-31T03:22:13Z
2022-10-31T01:23:19Z,42.805,6.029,13.3035,4.60073,2470.646,2022-10-31T03:25:16Z
2022-10-31T01:26:22Z,42.805,6.029,13.3043,4.60074,2470.646,2022-10-31T03:28:19Z
2022-10-31T01:29:25Z,42.805,6.029,13.3039,4.60084,2470.637,2022-10-31T03:31:22Z
2022-10-31T01:32:28Z,42.805,6.029,13.3046,4.60087,2470.646,2022-10-31T03:34:25Z
2022-10-31T01:35:31Z,42.805,6.029,13.3057,4.60086,2470.624,2022-10-31T03:37:28Z
2022-10-31T01:38:34Z,42.805,6.029,13.3057,4.60087,2470.646,2022-10-31T03:40:31Z
2022-10-31T01:41:37Z,42.805,6.029,13.3041,4.60078,2470.646,2022-10-31T03:43:34Z
2022-10-31T01:44:40Z,42.805,6.029,13.3048,4.60072,2470.624,2022-10-31T03:46:37Z
2022-10-31T01:47:44Z,42.805,6.029,13.3048,4.60088,2470.661,2022-10-31T03:49:40Z
2022-10-31T01:50:47Z,42.805,6.029,13.3049,4.60079,2470.624,2022-10-31T03:52:43Z
2022-10-31T01:53:50Z,42.805,6.029,13.3036,4.60074,2470.624,2022-10-31T03:55:46Z
2022-10-31T01:56:53Z,42.805,6.029,13.3044,4.60077,2470.624,2022-10-31T03:58:50Z
2022-10-31T01:59:56Z,42.805,6.029,13.3046,4.60074,2470.624,2022-10-31T04:01:53Z
2022-10-31T02:02:59Z,42.805,6.029,13.3042,4.60079,2470.591,2022-10-31T04:04:56Z
2022-10-31T02:06:02Z,42.805,6.029,13.3051,4.60082,2470.6,2022-10-31T04:07:59Z
2022-10-31T02:09:05Z,42.805,6.029,13.3054,4.60084,2470.614,2022-10-31T04:11:02Z
2022-10-31T02:12:08Z,42.805,6.029,13.3060,4.60092,2470.614,2022-10-31T04:14:05Z
2022-10-31T02:15:11Z,42.805,6.029,13.3047,4.60079,2470.614,2022-10-31T04:17:08Z
2022-10-31T02:18:14Z,42.805,6.029,13.3053,4.60072,2470.637,2022-10-31T04:20:11Z
2022-10-31T02:21:17Z,42.805,6.029,13.3045,4.60088,2470.614,2022-10-31T04:23:14Z
2022-10-31T02:24:20Z,42.805,6.029,13.3054,4.60097,2470.6,2022-10-31T04:26:17Z
2022-10-31T02:27:24Z,42.805,6.029,13.3043,4.60101,2470.637,2022-10-31T04:29:20Z
2022-10-31T02:30:27Z,42.805,6.029,13.3075,4.60084,2470.6,2022-10-31T04:32:23Z
2022-10-31T02:33:30Z,42.805,6.029,13.3049,4.60093,2470.614,2022-10-31T04:35:26Z
2022-10-31T02:36:33Z,42.805,6.029,13.3058,4.60095,2470.637,2022-10-31T04:38:30Z
2022-10-31T02:39:36Z,42.805,6.029,13.3049,4.60089,2470.577,2022-10-31T04:41:33Z
2022-10-31T02:42:39Z,42.805,6.029,13.3055,4.60094,2470.624,2022-10-31T04:44:36Z
2022-10-31T02:45:42Z,42.805,6.029,13.3061,4.60088,2470.614,2022-10-31T04:47:39Z
2022-10-31T02:48:45Z,42.805,6.029,13.3073,4.60087,2470.614,2022-10-31T04:50:42Z
2022-10-31T02:51:48Z,42.805,6.029,13.3043,4.60087,2470.591,2022-10-31T04:53:45Z
2022-10-31T02:54:51Z,42.805,6.029,13.3044,4.60076,2470.646,2022-10-31T04:56:48Z
2022-10-31T02:57:54Z,42.805,6.029,13.3037,4.60099,2470.6,2022-10-31T04:59:51Z
2022-10-31T03:00:57Z,42.805,6.029,13.3049,4.60092,2470.624,2022-10-31T05:02:54Z
2022-10-31T03:04:00Z,42.805,6.029,13.3042,4.60087,2470.577,2022-10-31T05:05:57Z
2022-10-31T03:07:04Z,42.805,6.029,13.3048,4.60086,2470.637,2022-10-31T05:09:00Z
2022-10-31T03:10:07Z,42.805,6.029,13.3039,4.60089,2470.624,2022-10-31T05:12:03Z
2022-10-31T03:13:10Z,42.805,6.029,13.3056,4.60077,2470.6,2022-10-31T05:15:06Z
2022-10-31T03:16:13Z,42.805,6.029,13.3044,4.60081,2470.637,2022-10-31T05:18:10Z
2022-10-31T03:19:16Z,42.805,6.029,13.3047,4.60097,2470.577,2022-10-31T05:21:13Z
2022-10-31T03:22:19Z,42.805,6.029,13.3061,4.60091,2470.614,2022-10-31T05:24:16Z
2022-10-31T03:25:22Z,42.805,6.029,13.3047,4.60074,2470.624,2022-10-31T05:27:19Z
2022-10-31T03:28:25Z,42.805,6.029,13.3047,4.60076,2470.577,2022-10-31T05:30:22Z
2022-10-31T03:31:28Z,42.805,6.029,13.3051,4.60084,2470.6,2022-10-31T05:33:25Z
2022-10-31T03:34:31Z,42.805,6.029,13.3043,4.60077,2470.6,2022-10-31T05:36:28Z
2022-10-31T03:37:34Z,42.805,6.029,13.3044,4.60079,2470.637,2022-10-31T05:39:31Z
2022-10-31T03:40:37Z,42.805,6.029,13.3048,4.60092,2470.6,2022-10-31T05:42:34Z
2022-10-31T03:43:40Z,42.805,6.029,13.3046,4.60074,2470.637,2022-10-31T05:45:37Z
2022-10-31T03:46:44Z,42.805,6.029,13.3041,4.60087,2470.6,2022-10-31T05:48:40Z
2022-10-31T03:49:47Z,42.805,6.029,13.3059,4.60081,2470.614,2022-10-31T05:51:43Z
2022-10-31T03:52:50Z,42.805,6.029,13.3051,4.60095,2470.661,2022-10-31T05:54:46Z
2022-10-31T03:55:53Z,42.805,6.029,13.3045,4.60081,2470.637,2022-10-31T05:57:50Z
2022-10-31T03:58:56Z,42.805,6.029,13.3045,4.60092,2470.614,2022-10-31T06:00:53Z
2022-10-31T04:01:59Z,42.805,6.029,13.3054,4.60089,2470.637,2022-10-31T06:03:56Z
2022-10-31T04:05:02Z,42.805,6.029,13.3054,4.60088,2470.614,2022-10-31T06:06:59Z
2022-10-31T04:08:05Z,42.805,6.029,13.3058,4.60089,2470.6,2022-10-31T06:10:02Z
2022-10-31T04:11:08Z,42.805,6.029,13.3056,4.60093,2470.577,2022-10-31T06:13:05Z
2022-10-31T04:14:11Z,42.805,6.029,13.3061,4.60094,2470.6,2022-10-31T06:16:08Z
2022-10-31T04:17:14Z,42.805,6.029,13.3079,4.60084,2470.577,2022-10-31T06:19:11Z
2022-10-31T04:20:17Z,42.805,6.029,13.3078,4.60091,2470.614,2022-10-31T06:22:14Z
2022-10-31T04:23:20Z,42.805,6.029,13.3075,4.60094,2470.6,2022-10-31T06:25:17Z
2022-10-31T04:26:24Z,42.805,6.029,13.3067,4.60097,2470.6,2022-10-31T06:28:20Z
2022-10-31T04:29:27Z,42.805,6.029,13.3070,4.60084,2470.6,2022-10-31T06:31:23Z
2022-10-31T04:32:30Z,42.805,6.029,13.3057,4.60092,2470.614,2022-10-31T06:34:27Z
2022-10-31T04:35:33Z,42.805,6.029,13.3059,4.60097,2470.6,2022-10-31T06:37:30Z
2022-10-31T04:38:36Z,42.805,6.029,13.3054,4.60080,2470.591,2022-10-31T06:40:33Z
2022-10-31T04:41:39Z,42.805,6.029,13.3064,4.60092,2470.553,2022-10-31T06:43:36Z
2022-10-31T04:44:42Z,42.805,6.029,13.3048,4.60095,2470.591,2022-10-31T06:46:39Z
2022-10-31T04:47:45Z,42.805,6.029,13.3058,4.60103,2470.577,2022-10-31T06:49:42Z
2022-10-31T04:50:48Z,42.805,6.029,13.3057,4.60092,2470.6,2022-10-31T06:52:45Z
2022-10-31T04:53:51Z,42.805,6.029,13.3053,4.60121,2470.591,2022-10-31T06:55:48Z
2022-10-31T04:56:54Z,42.805,6.029,13.3059,4.60087,2470.591,2022-10-31T06:58:51Z
2022-10-31T04:59:57Z,42.805,6.029,13.3065,4.60099,2470.577,2022-10-31T07:01:54Z
2022-10-31T05:03:01Z,42.805,6.029,13.3056,4.60103,2470.614,2022-10-31T07:04:57Z
2022-10-31T05:06:04Z,42.805,6.029,13.3070,4.60097,2470.553,2022-10-31T07:08:00Z
2022-10-31T05:09:07Z,42.805,6.029,13.3064,4.60085,2470.553,2022-10-31T07:11:03Z
2022-10-31T05:12:10Z,42.805,6.029,13.3075,4.60087,2470.577,2022-10-31T07:14:07Z
2022-10-31T05:15:13Z,42.805,6.029,13.3071,4.60075,2470.567,2022-10-31T07:17:10Z
2022-10-31T05:18:16Z,42.805,6.029,13.3048,4.60085,2470.6,2022-10-31T07:20:13Z
2022-10-31T05:21:19Z,42.805,6.029,13.3044,4.60087,2470.577,2022-10-31T07:23:16Z
2022-10-31T05:24:22Z,42.805,6.029,13.3051,4.60084,2470.567,2022-10-31T07:26:19Z
2022-10-31T05:27:25Z,42.805,6.029,13.3046,4.60086,2470.624,2022-10-31T07:29:22Z
2022-10-31T05:30:28Z,42.805,6.029,13.3052,4.60084,2470.6,2022-10-31T07:32:25Z
2022-10-31T05:33:31Z,42.805,6.029,13.3054,4.60097,2470.614,2022-10-31T07:35:28Z
2022-10-31T05:36:34Z,42.805,6.029,13.3066,4.60117,2470.6,2022-10-31T07:38:31Z
2022-10-31T05:39:37Z,42.805,6.029,13.3058,4.60089,2470.6,2022-10-31T07:41:34Z
2022-10-31T05:42:41Z,42.805,6.029,13.3053,4.60089,2470.567,2022-10-31T07:44:37Z
2022-10-31T05:45:44Z,42.805,6.029,13.3051,4.60102,2470.577,2022-10-31T07:47:40Z
2022-10-31T05:48:47Z,42.805,6.029,13.3058,4.60107,2470.553,2022-10-31T07:50:43Z
2022-10-31T05:51:50Z,42.805,6.029,13.3053,4.60092,2470.586,2022-10-31T07:53:47Z
2022-10-31T05:54:53Z,42.805,6.029,13.3048,4.60087,2470.553,2022-10-31T07:56:50Z
2022-10-31T05:57:56Z,42.805,6.029,13.3050,4.60120,2470.6,2022-10-31T07:59:53Z
2022-10-31T06:00:59Z,42.805,6.029,13.3024,4.60093,2470.637,2022-10-31T08:02:56Z
2022-10-31T06:04:02Z,42.805,6.029,13.3059,4.60118,2470.614,2022-10-31T08:05:59Z
2022-10-31T06:07:05Z,42.805,6.029,13.3090,4.60096,2470.591,2022-10-31T08:09:02Z
2022-10-31T06:10:08Z,42.805,6.029,13.3083,4.60102,2470.577,2022-10-31T08:12:05Z
2022-10-31T06:13:11Z,42.805,6.029,13.3036,4.60110,2470.614,2022-10-31T08:15:08Z
2022-10-31T06:16:14Z,42.805,6.029,13.3056,4.60091,2470.6,2022-10-31T08:18:11Z
2022-10-31T06:19:17Z,42.805,6.029,13.3058,4.60102,2470.614,2022-10-31T08:21:14Z
2022-10-31T06:22:21Z,42.805,6.029,13.3071,4.60095,2470.577,2022-10-31T08:24:17Z
2022-10-31T06:25:24Z,42.805,6.029,13.3060,4.60092,2470.614,2022-10-31T08:27:20Z
2022-10-31T06:28:27Z,42.805,6.029,13.3056,4.60093,2470.591,2022-10-31T08:30:23Z
2022-10-31T06:31:30Z,42.805,6.029,13.3023,4.60096,2470.637,2022-10-31T08:33:27Z
2022-10-31T06:34:33Z,42.805,6.029,13.3014,4.60102,2470.614,2022-10-31T08:36:30Z
2022-10-31T06:37:36Z,42.805,6.029,13.3089,4.60129,2470.614,2022-10-31T08:39:33Z
2022-10-31T06:40:39Z,42.805,6.029,13.3063,4.60119,2470.577,2022-10-31T08:42:36Z
2022-10-31T06:43:42Z,42.805,6.029,13.3098,4.60126,2470.6,2022-10-31T08:45:39Z
2022-10-31T06:46:45Z,42.805,6.029,13.3066,4.60100,2470.614,2022-10-31T08:48:42Z
2022-10-31T06:49:48Z,42.805,6.029,13.3067,4.60114,2470.637,2022-10-31T08:51:45Z
2022-10-31T06:52:51Z,42.805,6.029,13.3077,4.60098,2470.6,2022-10-31T08:54:48Z
2022-10-31T06:55:54Z,42.805,6.029,13.3067,4.60092,2470.614,2022-10-31T08:57:51Z
2022-10-31T06:58:57Z,42.805,6.029,13.3074,4.60114,2470.624,2022-10-31T09:00:54Z
2022-10-31T07:02:01Z,42.805,6.029,13.3073,4.60094,2470.6,2022-10-31T09:03:57Z
2022-10-31T07:05:04Z,42.805,6.029,13.3060,4.60101,2470.624,2022-10-31T09:07:00Z
2022-10-31T07:08:07Z,42.805,6.029,13.3063,4.60105,2470.577,2022-10-31T09:10:04Z
2022-10-31T07:11:10Z,42.805,6.029,13.3072,4.60092,2470.637,2022-10-31T09:13:07Z
2022-10-31T07:14:13Z,42.805,6.029,13.3065,4.60099,2470.661,2022-10-31T09:16:10Z
2022-10-31T07:17:16Z,42.805,6.029,13.3063,4.60097,2470.614,2022-10-31T09:19:13Z
2022-10-31T07:20:19Z,42.805,6.029,13.3068,4.60089,2470.624,2022-10-31T09:22:16Z
2022-10-31T07:23:22Z,42.805,6.029,13.3063,4.60093,2470.624,2022-10-31T09:25:19Z
2022-10-31T07:26:25Z,42.805,6.029,13.3063,4.60095,2470.646,2022-10-31T09:28:22Z
2022-10-31T07:29:28Z,42.805,6.029,13.3070,4.60097,2470.637,2022-10-31T09:31:25Z
2022-10-31T07:32:31Z,42.805,6.029,13.3067,4.60090,2470.624,2022-10-31T09:34:28Z
2022-10-31T07:35:34Z,42.805,6.029,13.3048,4.60085,2470.646,2022-10-31T09:37:31Z
2022-10-31T07:38:37Z,42.805,6.029,13.3059,4.60097,2470.624,2022-10-31T09:40:34Z
2022-10-31T07:41:41Z,42.805,6.029,13.3012,4.60117,2470.661,2022-10-31T09:43:37Z
2022-10-31T07:44:44Z,42.805,6.029,13.3015,4.60121,2470.67,2022-10-31T09:46:40Z
2022-10-31T07:47:47Z,42.805,6.029,13.3014,4.60094,2470.646,2022-10-31T09:49:44Z
2022-10-31T07:50:50Z,42.805,6.029,13.3091,4.60118,2470.684,2022-10-31T09:52:47Z
2022-10-31T07:53:53Z,42.805,6.029,13.3011,4.60087,2470.624,2022-10-31T09:55:50Z
2022-10-31T07:56:56Z,42.805,6.029,13.3008,4.60150,2470.67,2022-10-31T09:58:53Z
2022-10-31T07:59:59Z,42.805,6.029,13.3015,4.60160,2470.646,2022-10-31T10:01:56Z
2022-10-31T08:03:02Z,42.805,6.029,13.3015,4.60140,2470.67,2022-10-31T10:04:59Z
2022-10-31T08:06:05Z,42.805,6.029,13.3011,4.60170,2470.646,2022-10-31T10:08:02Z
2022-10-31T08:09:08Z,42.805,6.029,13.3015,4.60107,2470.67,2022-10-31T10:11:05Z
2022-10-31T08:12:11Z,42.805,6.029,13.3023,4.60137,2470.684,2022-10-31T10:14:08Z
2022-10-31T08:15:14Z,42.805,6.029,13.3054,4.60139,2470.684,2022-10-31T10:17:11Z
2022-10-31T08:18:18Z,42.805,6.029,13.3069,4.60093,2470.684,2022-10-31T10:20:14Z
2022-10-31T08:21:21Z,42.805,6.029,13.3073,4.60105,2470.707,2022-10-31T10:23:17Z
2022-10-31T08:24:24Z,42.805,6.029,13.3084,4.60102,2470.693,2022-10-31T10:26:21Z
2022-10-31T08:27:27Z,42.805,6.029,13.3032,4.60105,2470.693,2022-10-31T10:29:24Z
2022-10-31T08:30:30Z,42.805,6.029,13.3050,4.60141,2470.684,2022-10-31T10:32:27Z
2022-10-31T08:33:33Z,42.805,6.029,13.3074,4.60162,2470.67,2022-10-31T10:35:30Z
2022-10-31T08:36:36Z,42.805,6.029,13.3086,4.60142,2470.661,2022-10-31T10:38:33Z
2022-10-31T08:39:39Z,42.805,6.029,13.3051,4.60112,2470.73,2022-10-31T10:41:36Z
2022-10-31T08:42:42Z,42.805,6.029,13.3070,4.60155,2470.717,2022-10-31T10:44:39Z
2022-10-31T08:45:45Z,42.805,6.029,13.3082,4.60142,2470.707,2022-10-31T10:47:42Z
2022-10-31T08:48:48Z,42.805,6.029,13.3079,4.60130,2470.74,2022-10-31T10:50:45Z
2022-10-31T08:51:51Z,42.805,6.029,13.3089,4.60137,2470.707,2022-10-31T10:53:48Z
2022-10-31T08:54:55Z,42.805,6.029,13.3085,4.60097,2470.717,2022-10-31T10:56:51Z
2022-10-31T08:57:58Z,42.805,6.029,13.3092,4.60089,2470.754,2022-10-31T10:59:54Z
2022-10-31T09:01:01Z,42.805,6.029,13.3097,4.60103,2470.67,2022-10-31T11:02:58Z
2022-10-31T09:04:04Z,42.805,6.029,13.3093,4.60092,2470.707,2022-10-31T11:06:01Z
2022-10-31T09:07:07Z,42.805,6.029,13.3104,4.60099,2470.717,2022-10-31T11:09:04Z
2022-10-31T09:10:10Z,42.805,6.029,13.3097,4.60118,2470.754,2022-10-31T11:12:07Z
2022-10-31T09:13:13Z,42.805,6.029,13.3104,4.60155,2470.693,2022-10-31T11:15:10Z
2022-10-31T09:16:16Z,42.805,6.029,13.3104,4.60119,2470.73,2022-10-31T11:18:13Z
2022-10-31T09:19:19Z,42.805,6.029,13.3089,4.60125,2470.707,2022-10-31T11:21:16Z
2022-10-31T09:22:22Z,42.805,6.029,13.3099,4.60111,2470.754,2022-10-31T11:24:19Z
2022-10-31T09:25:25Z,42.805,6.029,13.3104,4.60104,2470.754,2022-10-31T11:27:22Z
2022-10-31T09:28:28Z,42.805,6.029,13.3107,4.60100,2470.763,2022-10-31T11:30:25Z
2022-10-31T09:31:32Z,42.805,6.029,13.3103,4.60102,2470.763,2022-10-31T11:33:28Z
2022-10-31T09:34:35Z,42.805,6.029,13.3097,4.60112,2470.754,2022-10-31T11:36:31Z
2022-10-31T09:37:38Z,42.805,6.029,13.3096,4.60103,2470.707,2022-10-31T11:39:35Z
2022-10-31T09:40:41Z,42.805,6.029,13.3085,4.60172,2470.73,2022-10-31T11:42:38Z
2022-10-31T09:43:44Z,42.805,6.029,13.3093,4.60127,2470.763,2022-10-31T11:45:41Z
2022-10-31T09:46:47Z,42.805,6.029,13.3093,4.60108,2470.754,2022-10-31T11:48:44Z
2022-10-31T09:49:50Z,42.805,6.029,13.3093,4.60160,2470.74,2022-10-31T11:51:47Z
2022-10-31T09:52:53Z,42.805,6.029,13.3097,4.60122,2470.754,2022-10-31T11:54:50Z
2022-10-31T09:55:56Z,42.805,6.029,13.3082,4.60099,2470.754,2022-10-31T11:57:53Z
2022-10-31T09:58:59Z,42.805,6.029,13.3082,4.60096,2470.74,2022-10-31T12:00:56Z
2022-10-31T10:02:02Z,42.805,6.029,13.3083,4.60137,2470.73,2022-10-31T12:03:59Z
2022-10-31T10:05:05Z,42.805,6.029,13.3089,4.60110,2470.777,2022-10-31T12:07:02Z
2022-10-31T10:08:09Z,42.805,6.029,13.3058,4.60102,2470.754,2022-10-31T12:10:05Z
2022-10-31T10:11:12Z,42.805,6.029,13.3060,4.60110,2470.74,2022-10-31T12:13:08Z
2022-10-31T10:14:15Z,42.805,6.029,13.3043,4.60107,2470.693,2022-10-31T12:16:12Z
2022-10-31T10:17:18Z,42.805,6.029,13.3057,4.60135,2470.717,2022-10-31T12:19:15Z
2022-10-31T10:20:21Z,42.805,6.029,13.3042,4.60108,2470.74,2022-10-31T12:22:18Z
2022-10-31T10:23:24Z,42.805,6.029,13.3049,4.60104,2470.777,2022-10-31T12:25:21Z
2022-10-31T10:26:27Z,42.805,6.029,13.3062,4.60119,2470.74,2022-10-31T12:28:24Z
2022-10-31T10:29:30Z,42.805,6.029,13.3063,4.60110,2470.763,2022-10-31T12:31:27Z
2022-10-31T10:32:33Z,42.805,6.029,13.3060,4.60096,2470.74,2022-10-31T12:34:30Z
2022-10-31T10:35:36Z,42.805,6.029,13.3061,4.60099,2470.777,2022-10-31T12:37:33Z
2022-10-31T10:38:39Z,42.805,6.029,13.3063,4.60114,2470.8,2022-10-31T12:40:36Z
2022-10-31T10:41:42Z,42.805,6.029,13.3046,4.60089,2470.777,2022-10-31T12:43:39Z
2022-10-31T10:44:46Z,42.805,6.029,13.3041,4.60079,2470.754,2022-10-31T12:46:42Z
2022-10-31T10:47:49Z,42.805,6.029,13.3042,4.60108,2470.74,2022-10-31T12:49:45Z
2022-10-31T10:50:52Z,42.805,6.029,13.3039,4.60105,2470.787,2022-10-31T12:52:49Z
2022-10-31T10:53:55Z,42.805,6.029,13.3041,4.60096,2470.763,2022-10-31T12:55:52Z
2022-10-31T10:56:58Z,42.805,6.029,13.3034,4.60104,2470.8,2022-10-31T12:58:55Z
2022-10-31T11:00:01Z,42.805,6.029,13.3043,4.60125,2470.787,2022-10-31T13:01:58Z
2022-10-31T11:03:04Z,42.805,6.029,13.3067,4.60115,2470.763,2022-10-31T13:05:01Z
2022-10-31T11:06:07Z,42.805,6.029,13.3039,4.60106,2470.8,2022-10-31T13:08:04Z
2022-10-31T11:09:10Z,42.805,6.029,13.3047,4.60102,2470.763,2022-10-31T13:11:07Z
2022-10-31T11:12:13Z,42.805,6.029,13.3042,4.60107,2470.8,2022-10-31T13:14:10Z
2022-10-31T11:15:16Z,42.805,6.029,13.3044,4.60136,2470.787,2022-10-31T13:17:13Z
2022-10-31T11:18:19Z,42.805,6.029,13.3075,4.60114,2470.787,2022-10-31T13:20:16Z
2022-10-31T11:21:22Z,42.805,6.029,13.3061,4.60123,2470.787,2022-10-31T13:23:19Z
2022-10-31T11:24:26Z,42.805,6.029,13.3064,4.60113,2470.763,2022-10-31T13:26:22Z
2022-10-31T11:27:29Z,42.805,6.029,13.3076,4.60139,2470.787,2022-10-31T13:29:25Z
2022-10-31T11:30:32Z,42.805,6.029,13.3051,4.60125,2470.777,2022-10-31T13:32:29Z
2022-10-31T11:33:35Z,42.805,6.029,13.3066,4.60115,2470.8,2022-10-31T13:35:32Z
2022-10-31T11:36:38Z,42.805,6.029,13.3058,4.60120,2470.777,2022-10-31T13:38:35Z
2022-10-31T11:39:41Z,42.805,6.029,13.3058,4.60147,2470.763,2022-10-31T13:41:38Z
2022-10-31T11:42:44Z,42.805,6.029,13.3067,4.60113,2470.787,2022-10-31T13:44:41Z
2022-10-31T11:45:47Z,42.805,6.029,13.3070,4.60108,2470.787,2022-10-31T13:47:44Z
2022-10-31T11:48:50Z,42.805,6.029,13.3064,4.60128,2470.763,2022-10-31T13:50:47Z
2022-10-31T11:51:53Z,42.805,6.029,13.3043,4.60152,2470.763,2022-10-31T13:53:50Z
2022-10-31T11:54:56Z,42.805,6.029,13.3055,4.60135,2470.754,2022-10-31T13:56:53Z
2022-10-31T11:58:00Z,42.805,6.029,13.3052,4.60109,2470.787,2022-10-31T13:59:56Z
2022-10-31T12:01:03Z,42.805,6.029,13.3063,4.60104,2470.787,2022-10-31T14:02:59Z
2022-10-31T12:04:06Z,42.805,6.029,13.3063,4.60122,2470.8,2022-10-31T14:06:03Z
2022-10-31T12:07:09Z,42.805,6.029,13.3058,4.60112,2470.777,2022-10-31T14:09:06Z
2022-10-31T12:10:12Z,42.805,6.029,13.3054,4.60104,2470.754,2022-10-31T14:12:09Z
2022-10-31T12:13:15Z,42.805,6.029,13.3056,4.60099,2470.824,2022-10-31T14:15:12Z
2022-10-31T12:16:18Z,42.805,6.029,13.3048,4.60114,2470.787,2022-10-31T14:18:15Z
2022-10-31T12:19:21Z,42.805,6.029,13.3060,4.60103,2470.787,2022-10-31T14:21:18Z
2022-10-31T12:22:24Z,42.805,6.029,13.3055,4.60087,2470.787,2022-10-31T14:24:21Z
2022-10-31T12:25:27Z,42.805,6.029,13.3056,4.60110,2470.777,2022-10-31T14:27:24Z
2022-10-31T12:28:30Z,42.805,6.029,13.3063,4.60117,2470.8,2022-10-31T14:30:27Z
2022-10-31T12:31:33Z,42.805,6.029,13.3070,4.60127,2470.763,2022-10-31T14:33:30Z
2022-10-31T12:34:36Z,42.805,6.029,13.3053,4.60115,2470.763,2022-10-31T14:36:33Z
2022-10-31T12:37:40Z,42.805,6.029,13.3066,4.60103,2470.763,2022-10-31T14:39:36Z
2022-10-31T12:40:43Z,42.805,6.029,13.3054,4.60099,2470.763,2022-10-31T14:42:39Z
2022-10-31T12:43:46Z,42.805,6.029,13.3049,4.60104,2470.763,2022-10-31T14:45:43Z
2022-10-31T12:46:49Z,42.805,6.029,13.3034,4.60087,2470.74,2022-10-31T14:48:46Z
2022-10-31T12:49:52Z,42.805,6.029,13.3054,4.60084,2470.763,2022-10-31T14:51:49Z
2022-10-31T12:52:55Z,42.805,6.029,13.3058,4.60110,2470.74,2022-10-31T14:54:52Z
2022-10-31T12:55:58Z,42.805,6.029,13.3067,4.60112,2470.754,2022-10-31T14:57:55Z
2022-10-31T12:59:01Z,42.805,6.029,13.3061,4.60181,2470.787,2022-10-31T15:00:58Z
2022-10-31T13:02:04Z,42.805,6.029,13.3078,4.60103,2470.787,2022-10-31T15:04:01Z
2022-10-31T13:05:07Z,42.805,6.029,13.3052,4.60125,2470.754,2022-10-31T15:07:04Z
2022-10-31T13:08:10Z,42.805,6.029,13.3044,4.60150,2470.763,2022-10-31T15:10:07Z
2022-10-31T13:11:13Z,42.805,6.029,13.3063,4.60120,2470.763,2022-10-31T15:13:10Z
2022-10-31T13:14:17Z,42.805,6.029,13.3103,4.60110,2470.777,2022-10-31T15:16:13Z
2022-10-31T13:17:20Z,42.805,6.029,13.3086,4.60102,2470.777,2022-10-31T15:19:16Z
2022-10-31T13:20:23Z,42.805,6.029,13.3057,4.60128,2470.763,2022-10-31T15:22:20Z
2022-10-31T13:23:26Z,42.805,6.029,13.3061,4.60152,2470.777,2022-10-31T15:25:23Z
2022-10-31T13:26:29Z,42.805,6.029,13.3066,4.60137,2470.777,2022-10-31T15:28:26Z
2022-10-31T13:29:32Z,42.805,6.029,13.3101,4.60092,2470.763,2022-10-31T15:31:29Z
2022-10-31T13:32:35Z,42.805,6.029,13.3072,4.60114,2470.777,2022-10-31T15:34:32Z
2022-10-31T13:35:38Z,42.805,6.029,13.3042,4.60088,2470.754,2022-10-31T15:37:35Z
2022-10-31T13:38:41Z,42.805,6.029,13.3041,4.60089,2470.74,2022-10-31T15:40:38Z
2022-10-31T13:41:44Z,42.805,6.029,13.3045,4.60095,2470.73,2022-10-31T15:43:41Z
2022-10-31T13:44:47Z,42.805,6.029,13.3039,4.60141,2470.74,2022-10-31T15:46:44Z
2022-10-31T13:47:50Z,42.805,6.029,13.3058,4.60143,2470.754,2022-10-31T15:49:47Z
2022-10-31T13:50:54Z,42.805,6.029,13.3058,4.60099,2470.763,2022-10-31T15:52:50Z
2022-10-31T13:53:57Z,42.805,6.029,13.3067,4.60092,2470.754,2022-10-31T15:55:53Z
2022-10-31T13:57:00Z,42.805,6.029,13.3061,4.60107,2470.74,2022-10-31T15:58:57Z
2022-10-31T14:00:03Z,42.805,6.029,13.3069,4.60112,2470.717,2022-10-31T16:02:00Z
2022-10-31T14:03:06Z,42.805,6.029,13.3054,4.60097,2470.74,2022-10-31T16:05:03Z
2022-10-31T14:06:09Z,42.805,6.029,13.3040,4.60114,2470.763,2022-10-31T16:08:06Z
2022-10-31T14:09:12Z,42.805,6.029,13.3060,4.60089,2470.754,2022-10-31T16:11:09Z
2022-10-31T14:12:15Z,42.805,6.029,13.3071,4.60081,2470.74,2022-10-31T16:14:12Z
2022-10-31T14:15:18Z,42.805,6.029,13.3059,4.60079,2470.777,2022-10-31T16:17:15Z
2022-10-31T14:18:21Z,42.805,6.029,13.3065,4.60093,2470.74,2022-10-31T16:20:18Z
2022-10-31T14:21:24Z,42.805,6.029,13.3039,4.60089,2470.754,2022-10-31T16:23:21Z
2022-10-31T14:24:27Z,42.805,6.029,13.3048,4.60091,2470.754,2022-10-31T16:26:24Z
2022-10-31T14:27:31Z,42.805,6.029,13.3066,4.60092,2470.74,2022-10-31T16:29:27Z
2022-10-31T14:30:34Z,42.805,6.029,13.3056,4.60081,2470.74,2022-10-31T16:32:30Z
2022-10-31T14:33:37Z,42.805,6.029,13.3052,4.60084,2470.754,2022-10-31T16:35:33Z
2022-10-31T14:36:40Z,42.805,6.029,13.3056,4.60078,2470.717,2022-10-31T16:38:37Z
2022-10-31T14:39:43Z,42.805,6.029,13.3037,4.60088,2470.73,2022-10-31T16:41:40Z
2022-10-31T14:42:46Z,42.805,6.029,13.3050,4.60084,2470.73,2022-10-31T16:44:43Z
2022-10-31T14:45:49Z,42.805,6.029,13.3049,4.60082,2470.717,2022-10-31T16:47:46Z
2022-10-31T14:48:52Z,42.805,6.029,13.3056,4.60104,2470.754,2022-10-31T16:50:49Z
2022-10-31T14:51:55Z,42.805,6.029,13.3055,4.60087,2470.754,2022-10-31T16:53:52Z
2022-10-31T14:54:58Z,42.805,6.029,13.3053,4.60095,2470.73,2022-10-31T16:56:55Z
2022-10-31T14:58:01Z,42.805,6.029,13.3045,4.60087,2470.74,2022-10-31T16:59:58Z
2022-10-31T15:01:04Z,42.805,6.029,13.3056,4.60082,2470.777,2022-10-31T17:03:01Z